Date,TemperatureHighF,TemperatureAvgF,TemperatureLowF,DewpointHighF,DewpointAvgF,DewpointLowF,HumidityHigh,HumidityAvg,HumidityLow,PressureMaxIn,PressureMinIn,WindSpeedMaxMPH,WindSpeedAvgMPH,GustSpeedMaxMPH,PrecipitationSumIn
2013-1-1,135,37,29,30,26,-27,76,63,52,29.97,28.33,40,6,40,20.48
2013-1-2,76,27,23,17,14,-28,65,58,51,30.14,24.67,27,7,27,0.16
2013-1-3,41,28,24,20,17,-52,73,62,50,30.15,24.77,133,4,133,20.48
2013-1-4,36,32,3,23,21,-20,74,63,55,30.09,24.19,28,7,28,10.24
2013-1-5,41,34,30,23,21,-11,71,59,47,30.25,24.70,25,6,25,0.64
2013-1-6,89,37,31,34,29,-7,99,73,53,30.19,24.88,17,3,17,0.03
2013-1-7,133,38,30,30,26,-4,76,62,43,30.53,27.00,32,4,32,0.56
2013-1-8,49,37,28,32,29,-45,87,73,52,30.52,24.28,127,3,127,20.48
2013-1-9,99,42,31,39,34,-28,96,75,53,30.34,24.20,64,3,64,10.24
2013-1-10,48,43,36,31,26,-14,66,51,40,30.48,30.20,26,6,26,0.02
2013-1-11,140,42,35,46,36,-15,100,81,58,30.47,24.23,130,3,130,8.98
2013-1-12,146,45,43,48,45,0,100,100,100,30.19,24.80,68,4,68,5.12
2013-1-13,146,46,41,52,46,0,100,98,84,30.10,29.49,69,3,69,0.01
2013-1-14,149,52,38,56,45,-22,100,81,43,30.23,26.87,20,6,20,20.49
2013-1-15,138,37,35,38,31,-5,99,79,63,30.28,24.91,128,5,128,0.25
2013-1-16,136,35,33,38,35,-1,100,100,90,30.20,24.69,67,4,67,21.42
2013-1-17,139,38,36,37,31,-4,97,75,57,30.09,24.66,68,4,68,2.56
2013-1-18,37,29,25,27,14,-46,71,53,38,30.44,24.19,64,7,64,10.24
2013-1-19,79,39,26,28,23,-24,72,53,35,30.37,24.30,30,8,30,1.28
2013-1-20,54,43,31,30,24,0,63,48,25,29.99,24.44,40,10,40,0.02
2013-1-21,32,28,25,27,16,-43,98,60,42,30.05,24.51,20,5,20,5.12
2013-1-22,126,18,12,16,1,-23,65,48,37,30.18,24.54,32,12,32,10.24
2013-1-23,35,13,8,5,0,-58,77,56,43,30.23,24.86,24,6,24,20.48
2013-1-24,69,16,8,6,2,-56,85,58,32,30.37,24.20,36,9,36,5.12
2013-1-25,24,16,12,17,6,-50,96,65,2,30.40,24.19,22,5,26,1.29
2013-1-26,125,19,12,14,10,-28,96,69,45,30.34,24.19,26,8,26,10.24
2013-1-27,69,24,16,15,12,-9,69,58,44,31.21,24.34,23,5,23,5.12
2013-1-28,36,30,22,36,26,-11,100,87,66,30.58,24.31,131,3,131,0.09
2013-1-29,52,42,35,47,40,6,100,93,68,30.09,24.67,32,3,32,0.00
2013-1-30,149,55,44,59,52,5,100,88,69,30.01,24.59,68,9,68,0.64
2013-1-31,62,45,29,60,31,-12,98,61,37,29.78,28.25,140,16,140,11.70
2013-2-1,30,27,22,19,11,-35,75,50,38,30.20,24.50,76,10,76,10.24
2013-2-2,29,23,17,22,9,-21,90,55,38,30.28,24.19,69,6,69,5.12
2013-2-3,30,26,22,23,21,-12,99,84,66,30.00,24.62,32,1,32,1.29
2013-2-4,29,25,21,24,13,-12,95,60,45,29.95,24.64,27,3,27,0.00
2013-2-5,33,30,25,32,28,-3,99,95,84,29.92,24.56,16,2,16,0.02
2013-2-6,138,33,28,31,24,-45,99,72,47,30.39,24.58,28,6,28,0.01
2013-2-7,38,30,23,33,17,-13,83,59,46,31.16,24.22,18,3,18,0.08
2013-2-8,135,36,28,40,35,-5,100,96,83,30.23,24.32,64,7,64,14.74
2013-2-9,51,28,21,30,18,-4,100,69,39,30.37,24.20,36,9,133,0.02
2013-2-10,38,25,14,23,13,-34,79,61,28,30.43,24.27,16,4,16,10.36
2013-2-11,53,42,26,53,41,22,100,96,75,30.29,29.59,18,5,24,0.35
2013-2-12,44,40,32,43,27,-4,98,60,46,29.92,24.44,38,9,38,10.24
2013-2-13,42,34,26,33,26,-3,100,73,52,29.91,24.57,11,2,38,7.08
2013-2-14,46,36,32,35,32,-14,100,87,50,29.97,24.47,13,3,13,2.26
2013-2-15,56,42,32,38,33,-3,99,73,38,29.98,24.60,131,4,131,0.16
2013-2-16,43,35,30,35,28,-23,98,76,54,29.90,24.43,24,5,24,0.02
2013-2-17,31,26,18,17,7,-16,56,44,34,29.99,28.42,40,14,41,0.32
2013-2-18,35,25,16,13,7,-11,53,45,35,30.20,24.70,36,9,36,3.68
2013-2-19,51,40,29,46,31,-40,100,73,45,30.17,27.04,33,7,33,2.77
2013-2-20,38,30,24,26,14,-52,66,52,45,29.96,24.62,36,10,36,3.89
2013-2-21,75,28,22,16,14,-22,65,55,46,30.22,24.67,40,11,40,3.90
2013-2-22,37,30,22,34,23,-16,91,75,64,31.01,24.19,127,2,127,5.12
2013-2-23,46,40,36,45,40,3,100,100,91,30.20,24.20,26,4,26,8.18
2013-2-24,46,38,32,38,31,0,100,78,52,29.94,24.44,33,8,33,20.48
2013-2-25,81,36,29,28,25,-10,77,63,50,30.18,24.68,64,5,64,0.04
2013-2-26,134,36,27,38,31,0,100,81,63,30.22,24.89,34,4,34,1.14
2013-2-27,51,45,38,50,42,-28,100,89,65,29.78,29.42,64,3,64,6.26
2013-2-28,48,42,36,38,33,-31,87,70,51,29.58,24.25,36,4,36,5.31
2013-3-1,44,38,33,32,28,14,90,69,49,29.77,29.49,23,7,23,1.38
2013-3-2,135,34,30,26,23,0,75,63,54,29.74,24.39,72,4,72,10.28
2013-3-3,36,31,28,23,19,-19,75,61,50,29.72,26.64,27,4,27,20.53
2013-3-4,84,33,26,22,19,-50,68,57,44,29.87,24.44,33,10,33,2.62
2013-3-5,143,36,30,32,24,-12,90,62,43,29.95,24.64,42,6,42,20.49
2013-3-6,40,38,34,37,33,-37,96,83,73,29.90,24.47,48,11,48,0.21
2013-3-7,38,35,33,35,32,0,100,89,73,30.02,24.55,44,12,44,0.75
2013-3-8,41,34,29,36,31,-5,100,93,66,30.12,26.92,64,6,64,20.55
2013-3-9,138,42,31,31,23,-3,98,51,22,30.28,24.20,22,6,22,5.12
2013-3-10,45,37,30,36,34,-2,100,88,66,31.03,24.26,15,3,15,0.00
2013-3-11,54,44,33,50,42,0,100,92,68,30.26,24.20,32,1,32,0.32
2013-3-12,57,52,23,57,49,17,100,90,70,30.04,24.64,30,4,32,0.73
2013-3-13,48,42,37,38,30,0,82,64,37,29.85,26.82,30,4,30,0.08
2013-3-14,40,35,30,25,15,-12,64,45,32,29.92,24.58,137,12,142,10.24
2013-3-15,48,38,28,28,19,-36,58,46,38,29.95,24.64,28,8,137,0.32
2013-3-16,45,36,32,33,28,-8,100,77,51,29.87,24.54,132,3,132,0.02
2013-3-17,37,33,29,33,22,-37,100,68,46,30.24,24.94,24,6,132,0.08
2013-3-18,37,33,29,37,25,-11,100,74,50,30.33,24.25,24,4,25,10.50
2013-3-19,48,40,36,38,34,-47,100,83,38,29.89,24.38,37,4,37,5.78
2013-3-20,45,38,31,22,18,-25,60,46,32,29.86,24.47,29,6,37,0.00
2013-3-21,38,32,29,28,21,-39,90,64,39,29.76,24.44,133,6,133,2.56
2013-3-22,40,33,26,22,18,-40,69,55,41,29.85,24.42,32,6,133,0.00
2013-3-23,44,37,29,22,20,0,70,51,36,29.89,29.49,25,8,39,0.00
2013-3-24,44,37,30,27,21,-29,70,53,39,29.90,24.58,23,4,39,0.08
2013-3-25,138,35,32,36,32,0,100,90,52,29.65,24.31,25,1,25,0.78
2013-3-26,137,41,33,36,31,-18,100,70,38,29.82,24.30,127,1,127,0.01
2013-3-27,50,42,34,30,27,-30,72,58,36,29.95,24.64,30,4,127,0.02
2013-3-28,47,42,34,32,29,-38,79,61,46,30.06,24.63,25,2,30,0.64
2013-3-29,92,45,27,77,28,3,70,52,35,30.11,27.04,34,4,34,0.00
2013-3-30,57,46,26,32,25,-2,72,47,22,30.12,27.06,35,4,35,0.00
2013-3-31,55,45,36,47,35,-7,100,72,36,30.09,24.34,28,5,35,20.80
2013-4-1,61,49,38,48,37,-8,100,67,32,29.86,26.63,31,4,64,0.64
2013-4-2,42,37,31,16,14,-40,55,38,28,30.04,24.63,28,4,64,0.02
2013-4-3,44,37,31,16,14,-9,49,38,26,30.24,24.94,73,9,74,5.12
2013-4-4,50,39,29,28,20,0,64,47,30,30.34,24.20,22,6,74,0.00
2013-4-5,66,47,37,38,27,-8,100,55,17,30.05,29.51,30,7,30,0.05
2013-4-6,48,40,34,28,20,3,70,47,24,30.27,26.94,38,9,38,0.00
2013-4-7,58,47,36,43,34,-7,79,62,39,30.26,24.69,29,8,68,5.12
2013-4-8,70,58,50,45,42,-6,77,58,35,30.02,29.92,20,5,68,0.00
2013-4-11,148,47,44,48,44,36,95,91,85,29.95,24.65,127,4,127,1.14
2013-4-12,45,42,41,45,42,40,100,99,86,29.93,29.63,25,1,29,0.59
2013-4-13,93,47,40,45,40,24,100,80,42,29.93,24.56,24,2,24,0.46
2013-4-14,59,50,41,45,35,-15,100,63,31,30.15,29.38,130,5,130,0.40
2013-4-15,53,47,42,44,34,-30,93,61,44,30.39,24.86,67,4,67,0.02
2013-4-16,66,56,44,52,48,42,95,77,59,30.31,27.07,21,6,24,0.00
2013-4-17,69,59,50,56,45,-30,98,63,23,30.23,24.92,133,4,133,0.01
2013-4-18,58,52,45,57,46,2,100,82,62,30.27,29.48,22,6,22,10.24
2013-4-19,91,65,56,63,59,5,100,83,60,30.03,29.53,138,8,138,0.03
2013-4-20,64,51,47,63,35,-8,97,57,31,30.23,26.65,38,10,138,3.22
2013-4-21,51,42,36,30,24,-3,73,48,32,31.02,30.23,32,7,38,0.00
2013-4-22,140,42,34,39,33,-50,89,71,58,30.57,24.38,66,7,66,0.00
2013-4-23,49,44,40,42,38,-47,100,82,73,30.41,24.31,25,8,66,1.29
2013-4-24,70,54,38,51,44,-11,95,73,43,30.05,26.79,130,6,130,0.00
2013-4-25,62,53,45,52,33,-15,84,50,8,30.22,26.85,140,8,140,2.56
2013-4-26,66,52,41,36,32,20,78,48,22,30.35,24.28,20,5,140,1.60
2013-4-27,64,53,40,36,31,18,76,45,23,30.36,24.29,16,4,20,10.24
2013-4-28,65,54,41,44,34,-16,80,49,21,30.26,24.88,64,5,64,0.02
2013-4-29,55,53,50,100,49,0,98,87,68,30.18,24.88,24,6,64,10.35
2013-4-30,60,54,46,50,41,12,98,66,28,30.27,24.85,21,5,24,1.29
2013-5-1,60,51,43,43,40,-12,90,67,38,30.42,24.22,23,5,23,5.12
2013-5-2,65,54,40,48,41,-8,100,65,34,30.41,24.31,15,4,23,0.02
2013-5-3,56,51,42,47,40,34,96,69,45,30.39,30.30,15,5,21,0.00
2013-5-4,59,49,16,47,41,5,100,76,43,30.31,24.26,64,5,64,0.64
2013-5-5,54,47,41,45,40,-9,97,75,59,30.23,24.89,67,4,67,0.02
2013-5-6,59,51,26,51,47,19,100,86,64,30.20,24.86,16,4,67,2.56
2013-5-7,64,55,48,59,53,18,100,95,73,30.11,24.74,18,3,18,1.33
2013-5-8,68,59,7,63,56,6,100,90,55,30.03,28.44,20,5,20,2.26
2013-5-9,68,59,53,60,54,-30,100,83,55,29.95,29.49,16,3,16,10.32
2013-5-10,79,65,54,59,54,0,100,71,34,29.95,26.80,64,4,64,10.29
2013-5-11,74,64,13,65,61,6,100,91,61,29.85,24.20,21,4,21,20.50
2013-5-12,65,59,50,64,41,-5,100,57,22,29.91,24.34,39,7,39,20.51
2013-5-13,147,48,40,34,29,-11,72,48,31,30.05,24.63,134,7,134,0.17
2013-5-14,59,48,37,35,29,-18,79,51,23,30.08,24.73,32,6,32,0.34
2013-5-15,72,60,45,56,47,6,79,63,44,30.03,24.72,132,5,132,0.01
2013-5-16,78,67,59,59,53,-4,94,64,35,29.78,24.36,130,4,130,0.01
2013-5-17,71,63,54,58,40,-10,79,43,26,30.14,24.83,127,6,127,5.12
2013-5-18,64,56,50,57,51,3,98,82,61,30.25,29.48,65,3,65,5.12
2013-5-19,59,56,54,58,56,0,100,100,98,30.24,24.94,64,5,64,0.05
2013-5-20,96,66,57,69,62,6,100,90,59,30.12,24.74,16,2,16,2.56
2013-5-21,83,73,63,70,64,14,100,78,50,29.92,29.78,14,4,15,0.00
2013-5-22,84,72,65,71,66,14,100,84,52,29.86,28.28,130,4,130,5.13
2013-5-23,80,70,64,69,65,2,100,84,56,29.84,29.48,26,7,26,2.56
2013-5-24,66,55,42,64,53,0,100,94,75,29.92,24.35,37,8,37,0.00
2013-5-25,57,49,42,44,39,0,98,70,42,29.97,24.68,42,13,42,0.01
2013-5-26,66,56,46,38,34,-14,71,45,24,30.21,24.66,73,9,73,0.00
2013-5-27,71,58,40,44,37,-29,85,50,25,30.21,24.90,17,3,17,0.00
2013-5-28,66,58,49,61,53,22,100,84,54,30.18,24.77,18,2,18,0.50
2013-5-29,86,71,58,68,60,7,100,74,39,30.07,24.68,127,3,127,1.62
2013-5-30,97,79,68,66,61,13,86,57,30,30.22,29.27,15,4,15,0.02
2013-5-31,91,79,67,68,60,0,96,56,20,30.07,24.19,16,4,16,0.00
2013-6-1,88,77,67,65,62,56,90,62,36,29.97,29.84,20,5,20,0.00
2013-6-2,86,76,68,69,64,2,95,68,45,29.87,29.01,34,7,34,0.23
2013-6-3,76,69,65,71,66,22,100,92,66,29.81,24.19,130,3,130,5.25
2013-6-4,72,63,56,62,44,-2,93,52,30,30.04,24.55,22,7,22,0.01
2013-6-5,69,61,49,57,47,40,98,63,44,30.14,24.77,128,4,128,10.24
2013-6-6,68,61,55,62,57,6,100,86,47,30.08,24.67,19,5,19,0.17
2013-6-7,68,62,59,67,62,59,100,100,99,29.93,28.79,21,4,21,0.10
2013-6-8,75,66,57,62,60,57,100,82,59,29.99,29.48,14,0,18,0.04
2013-6-9,80,70,59,63,57,0,94,65,41,30.11,24.72,11,0,11,0.02
2013-6-10,69,66,63,69,64,-16,100,96,80,30.09,24.79,16,0,16,0.02
2013-6-11,79,72,66,70,63,12,100,75,52,29.74,24.36,21,4,21,20.52
2013-6-12,78,70,62,58,53,0,80,56,36,29.79,26.74,127,8,127,0.02
2013-6-13,71,64,58,66,59,-9,100,86,57,29.78,24.48,68,6,68,10.25
2013-6-14,70,59,52,58,53,2,100,81,52,29.84,29.41,27,4,27,0.01
2013-6-15,79,67,57,58,53,5,96,64,33,29.96,24.55,127,2,127,0.65
2013-6-16,81,69,58,62,58,-32,95,68,43,29.95,29.18,21,3,21,0.18
2013-6-17,83,71,63,71,64,0,100,80,45,29.86,29.51,19,3,19,0.01
2013-6-18,77,66,62,68,64,11,100,93,68,29.84,29.05,18,3,18,1.28
2013-6-19,73,65,58,64,53,0,100,69,34,30.10,28.28,129,4,129,0.01
2013-6-20,76,65,54,59,52,-17,97,65,41,30.21,24.81,66,4,66,0.02
2013-6-21,79,67,56,56,52,46,91,61,39,30.25,24.90,17,4,17,0.00
2013-6-22,81,68,55,62,56,-4,98,68,39,30.20,30.07,16,4,16,0.32
2013-6-23,85,72,62,74,63,0,100,74,48,30.14,29.50,131,4,131,0.00
2013-6-24,88,76,70,74,67,42,100,76,43,30.09,29.49,129,3,129,0.09
2013-6-25,89,76,65,69,65,0,99,69,44,29.94,24.19,130,4,130,0.32
2013-6-26,87,76,69,72,64,11,100,67,39,29.81,24.46,127,4,132,0.00
2013-6-27,84,75,69,74,69,19,100,85,54,29.77,24.41,20,4,20,0.01
2013-6-28,84,75,69,72,67,-3,98,76,49,29.69,24.22,65,4,65,0.64
2013-6-29,82,73,65,70,66,0,100,81,49,29.65,24.92,64,3,64,0.00
2013-6-30,82,73,66,74,71,0,100,93,68,29.84,26.63,34,1,34,5.14
2013-7-1,80,73,70,76,72,19,100,96,71,29.98,24.54,127,1,127,0.07
2013-7-2,83,75,71,73,71,0,100,88,63,30.18,28.48,34,2,34,0.10
2013-7-3,82,74,68,76,72,18,100,91,71,30.19,24.87,32,1,32,0.66
2013-7-4,87,78,71,76,70,-11,100,79,48,30.19,29.50,14,0,14,0.18
2013-7-5,97,79,70,74,68,20,100,72,45,30.16,29.96,15,0,15,0.34
2013-7-6,90,81,72,75,69,0,99,70,45,30.09,24.23,16,0,16,0.00
2013-7-7,90,81,72,72,68,0,96,67,46,30.01,24.62,14,0,14,0.00
2013-7-8,85,75,68,69,66,-8,94,74,48,30.00,24.64,127,1,127,0.00
2013-7-9,84,76,67,71,67,-6,98,74,53,30.01,24.70,16,2,16,0.00
2013-7-10,84,78,71,73,70,65,96,77,55,29.96,24.48,127,2,127,0.02
2013-7-11,83,76,72,75,68,0,100,77,53,29.85,24.47,3,0,32,0.33
2013-7-12,74,70,66,70,65,11,100,85,66,30.00,24.56,32,1,32,3.86
2013-7-13,84,75,67,76,71,19,100,90,61,30.21,24.72,16,0,16,20.61
2013-7-14,87,78,71,75,70,65,100,78,51,30.27,29.43,4,0,127,2.57
2013-7-15,91,81,72,73,69,20,98,68,45,30.20,24.79,32,0,127,0.00
2013-7-16,90,80,72,74,65,43,98,63,35,30.13,24.79,16,1,16,1.28
2013-7-17,92,81,72,71,67,-7,95,64,37,30.12,24.80,10,1,10,0.00
2013-7-18,93,83,73,71,68,-7,86,62,40,30.05,28.50,10,0,10,0.04
2013-7-19,93,85,77,78,72,-3,96,67,44,29.92,29.00,127,1,127,0.04
2013-7-20,90,82,75,72,68,23,79,64,44,29.78,29.55,17,2,20,1.28
2013-7-21,82,75,70,74,67,31,100,79,46,29.88,26.85,10,1,10,0.02
2013-7-22,82,75,70,76,72,0,100,93,66,29.88,29.09,9,0,9,0.09
2013-7-23,94,76,68,75,70,34,100,86,56,29.83,28.95,12,0,12,0.13
2013-7-24,79,74,67,72,63,35,98,70,53,29.84,29.53,14,0,15,0.03
2013-7-25,68,64,62,59,54,-9,83,71,58,29.97,24.56,32,0,32,20.55
2013-7-26,79,69,12,65,59,0,92,72,44,29.99,24.63,127,0,127,0.05
2013-7-27,80,70,62,68,62,0,100,77,45,30.00,24.69,127,0,127,0.00
2013-7-28,94,70,62,71,66,0,100,88,62,29.92,24.59,19,1,19,0.01
2013-7-29,82,72,65,70,61,4,100,71,34,30.04,29.88,17,0,17,0.01
2013-7-30,78,70,59,59,54,0,86,59,41,30.10,29.50,6,0,14,0.00
2013-7-31,96,69,10,62,57,-6,95,68,44,30.10,24.69,16,0,16,0.08
2013-8-1,71,68,65,69,65,-7,100,91,75,29.97,28.40,13,0,13,2.74
2013-8-2,82,73,65,68,62,15,100,73,44,29.87,24.46,64,0,64,0.82
2013-8-3,76,69,64,67,64,0,97,83,63,29.87,24.52,14,2,15,0.66
2013-8-4,76,69,62,66,56,3,100,67,40,29.91,24.50,23,4,23,0.98
2013-8-5,75,66,58,58,49,1,81,57,34,30.07,24.62,16,2,32,0.32
2013-8-6,77,67,52,62,55,0,97,68,38,30.05,24.69,17,2,17,10.24
2013-8-7,91,70,64,68,63,10,92,81,64,30.07,24.72,65,2,65,1.28
2013-8-8,81,73,68,74,70,0,100,90,68,30.00,24.68,15,4,15,0.27
2013-8-9,83,77,72,75,72,18,99,86,66,29.96,24.50,23,2,23,0.18
2013-8-10,80,74,68,74,64,13,100,75,48,30.07,24.59,64,0,64,0.02
2013-8-11,79,70,62,67,58,0,97,68,44,30.19,29.22,127,1,127,0.04
2013-8-12,77,70,65,71,68,14,100,92,68,29.97,24.58,32,0,32,0.04
2013-8-13,74,69,66,72,68,0,100,96,76,29.87,24.39,11,0,11,2.42
2013-8-14,71,65,59,69,51,-3,98,60,43,29.98,29.68,18,4,24,0.02
2013-8-15,74,64,55,54,49,-25,81,60,34,30.09,24.71,132,4,132,0.02
2013-8-16,76,65,55,58,52,4,96,67,36,30.14,24.78,18,2,18,2.58
2013-8-17,69,58,52,62,56,4,99,93,65,30.20,24.85,4,0,4,0.07
2013-8-19,74,74,74,59,59,58,59,59,59,29.98,29.98,6,1,6,0.00
2013-11-9,50,46,42,34,28,23,70,51,39,30.22,29.95,0,0,0,0.00
2013-11-10,60,48,39,36,31,25,75,53,35,30.03,29.77,0,0,0,0.00
2013-11-11,53,47,39,35,28,24,57,48,36,30.18,29.92,0,0,0,0.00
2013-11-12,51,37,28,36,25,16,99,63,48,30.25,29.88,0,0,0,0.00
2013-11-13,38,31,25,19,16,9,68,54,33,30.32,30.23,0,0,0,0.00
2013-11-14,53,40,28,22,17,8,71,42,17,30.25,30.12,0,0,0,0.00
2013-11-15,58,44,33,33,29,21,82,57,27,30.21,30.10,0,0,0,0.00
2013-11-16,54,46,40,48,41,30,100,84,66,30.28,30.18,0,0,0,0.04
2013-11-17,65,56,44,62,55,44,100,99,81,30.21,29.74,0,0,0,0.00
2013-11-18,65,61,56,64,42,25,100,57,24,29.74,29.57,0,0,0,0.03